User: anonymous   Login
Location: Fort Wayne
(41.1310°N, 85.1290°W)
Time: 10:50:17
(UTC-05:00)
Language:

SR - Orbit

View from above orbital plane
View from above orbital plane
View from above satellite
View from above satellite

Ground track
Ground track

The orbit data is extracted from the following two-line orbital elements,

1 00046U 60007B   17056.15030798  .00000181  00000-0  58341-4 0  9990
2 00046  66.6895  70.7565 0216950 310.4812  47.7560 14.48998466964023
Epoch (UTC): 25 February 2017 03:36:26
Eccentricity: 0.0216950
inclination: 66.6895°
perigee height: 575 km
apogee height: 883 km
right ascension of ascending node: 70.7565°
argument of perigee: 310.4812°
revolutions per day: 14.48998466
mean anomaly at epoch: 47.7560°
orbit number at epoch: 96402

The dashed part of the orbit path shows where the satellite is in the earth's shadow,  

DLR